Home   Weather   The Bottom   Past weeks

Flag for Caribbean Netherlands Past Weather in The Bottom, Saba, Caribbean Netherlands — Yesterday and Last 2 Weeks

Now
90 °F

Hot.


Feels Like: 105 °F
Forecast: N/A
Wind: 15 mph from East

Location: Roosevelt Airport / Saint Eustatius

Current Time: Sep 27, 2016 at 1:22:25 PM

Latest Report: Sep 27, 2016 at 12:55 PM


Visibility: N/A

Pressure: 29.98 "Hg

Humidity: 71%

Dew Point: 79 °F

Location of The BottomLocation

Past Weather in The Bottom — Graph

°F

The Bottom Temperature Yesterday

Maximum temperature yesterday: 88 °F (at 9:55 AM)
Minimum temperature yesterday: 79 °F (at 2:55 AM)
Average temperature yesterday: 84 °F

High & Low Weather Summary for the Past Weeks

 TemperatureHumidityPressure
High91 °F (Sep 23, 11:55 AM)100% (Sep 18, 4:55 AM)30.04 "Hg (Sep 18, 4:55 AM)
Low75 °F (Sep 18, 4:55 AM)59% (Sep 23, 11:55 AM)29.83 "Hg (Sep 21, 3:55 AM)
Average83 °F78%29.95 "Hg
* Reported Sep 12 11:55 AM — Sep 27 11:55 AM, The Bottom, Weather by CustomWeather, © 2016

Note: Actual official high and low records may vary slightly from our data, if they occured in-between our weather recording intervals... More about our weather records

Advertising

The Bottom Weather History for the Previous 24 Hours

Scroll right to see more
 ConditionsComfort  
Time TempWeatherWind HumidityBarometerVisibility
11:55 AM
Tue, Sep 27
90 °FHot.14 mph71%29.98 "HgN/A
10:55 AM90 °FHot.15 mph71%30.01 "HgN/A
9:55 AM88 °FWarm.12 mph75%30.01 "HgN/A
8:55 AM88 °FWarm.13 mph75%30.01 "HgN/A
7:55 AM84 °FWarm.10 mph84%29.98 "HgN/A
6:55 AM82 °FWarm.6 mph89%29.95 "HgN/A
5:55 AM81 °FWarm.15 mph89%29.95 "HgN/A
4:55 AM82 °FWarm.12 mph84%29.92 "HgN/A
3:55 AM84 °FWarm.13 mph84%29.89 "HgN/A
2:55 AM82 °FWarm.10 mph89%29.89 "HgN/A
1:55 AM84 °FWarm.14 mph84%29.89 "HgN/A
12:55 AM82 °FWarm.13 mph84%29.92 "HgN/A
11:55 PM
Mon, Sep 26
84 °FWarm.14 mph84%29.95 "HgN/A
10:55 PM82 °FWarm.14 mph84%29.95 "HgN/A
9:55 PM84 °FWarm.12 mph84%29.98 "HgN/A
8:55 PM82 °FWarm.10 mph84%29.95 "HgN/A
7:55 PM84 °FWarm.12 mph79%29.95 "HgN/A
6:55 PM84 °FWarm.9 mph79%29.92 "HgN/A
5:55 PM84 °FWarm.9 mph84%29.92 "HgN/A
4:55 PM86 °FWarm.10 mph75%29.89 "HgN/A
3:55 PM86 °FWarm.12 mph75%29.89 "HgN/A
2:55 PM88 °FWarm.9 mph70%29.89 "HgN/A
1:55 PM86 °FWarm.7 mph75%29.92 "HgN/A
Weather by CustomWeather, © 2016

See weather overviewHow to use our weather pages